Showing default

GOES 5, 12472

Orbit data source: Space-Track

GOES 5, 12472 is a payload satellite owned by NOAA (US) in GEO that was launched on Fri, 22 May 1981 UTC via a DELTA 3914 launch vehicle from the Air Force Eastern Test Range (AFETR). Payloads include a variety of satellites, spacecraft, and rockets equipped with specific instruments for various scientific and technological missions. These include communications satellites like Starlink; space stations such as the ISS; scientific satellites like the Hubble; Earth observation satellites from companies like Planet Labs, Umbra, and HawkEye 360; GPS; miniature CubeSats for education and research; and military/defense satellites.

Loading next visibility...
GOES 5 details
Identifier
12472, 1981-049A
Orbit
GEO
Last TLE update1 day ago
Origin
Flag of USNOAA (US)
ManufacturerHughes
MissionNon-operational Civil Weather
Bus & MotorHS-371, STAR 27 TE-
Mass836 kg wet, ~295 kg dry
Launch date (UTC)
1981-05-22 (44 years ago)
Launch vehicle
DELTA 3914
Launch site
Air Force Eastern Test Range (AFETR)
Object type
Payload
Rocket body
Debris
Shape & HBRCyl + 1 Ant, 4.4 m
Radar Cross Section7.914 m², Large (>1 m²)

Expand to show TLE details & history

TLE from 1 day ago
0 GOES 5
1 12472U 81049A   24347.93062157 -.00000100  00000-0  00000-0 0  9993
2 12472  10.3503 319.3811 0003940 290.5319  61.6461  1.00340223117313
Epoch: 2024-12-12T22:20Z
Definitive object data (Epoch: 2024-12-12T22:20:05.703Z)
Latitude-1.39977°
Longitude-105.43799°
Altitude35,759.199 km
Speed3.076 km/s
True Right ascension20h 46m 45s
True Declination-1° 23' 54"
Sunlit
Object was in daylight at TLE epoch
Visualization TLE readout
Latitude-2.47796°
Longitude-111.43649°
Altitude35,757.839 km
Speed3.076 km/s
Apparent Right ascension20h 22m 46s
Apparent Declination-8° 59' 56"
Sunlit
Object is in daylight
Visualization observer readout
Local Sidereal Time20:22:43
Azimuth179.984° S
Elevation41.085°
Doppler factor1
Orbital elements
Apogee altitude35,785.046 km
Perigee altitude35,751.835 km
Semi-major axis42,146.577 km
Eccentricity0.000394
Inclination10.3503°
RAAN319.3811°
Arg. of periapsis290.5319°
True anomaly61.68584°
Mean anomaly61.6461°
Eccentric anomaly61.66597°
Mean motion0.25084 °/min
BSTARUnknown
Orbital period1435.17 mins
Loading historical data...
12472 neighbors
Authenticating...
Loading maneuver chart data...
Loading historical data...
Loading historical data...
Loading historical data...
Loading historical data...
Loading historical data...
Loading historical data...
Loading historical data...
Other satellites on launch #49 in the year 1981 (1981-05-22 UTC)

GOES 5 Visibility forecast

Observer location: undefined°, undefined

Span
Click to sort rows by Start time (UTC) header in descending order
Start Az.
Max El. time (UTC)
Max El. Az.
Max El.
End time (UTC)
End Az.
1440 mins2024-12-13 21:50:54.971Z179.984° S2024-12-14 04:48:54.971Z180.277° SSW39.512°2024-12-14 21:50:54.971Z179.643° S
|